(56205) = 1999 GX23 = 2001 QD76

Discovered at Socorro on 1999-04-06 by LINEAR.

Orbit

Orbit type: Main Belt

Note: WebGL enabled browser required.

epoch2024-03-31.0
epoch JD2460400.5
perihelion date2022-01-18.67830
perihelion JD2459598.17830
argument of perihelion (°)34.50693
ascending node (°)19.58020
inclination (°)14.07649
eccentricity0.0615390
perihelion distance (AU)2.3758912
Tisserand w.r.t. Jupiter3.4
ΔV w.r.t. Earth (km/sec)10.6
semimajor axis (AU)2.5316890
mean anomaly (°)196.30748
mean daily motion (°/day)0.24467430
aphelion distance (AU)2.687
period (years)4.03
P-vector [x]0.59225518
P-vector [y]0.67356564
P-vector [z]0.44220259
Q-vector [x]-0.80161723
Q-vector [y]0.43703846
Q-vector [z]0.40793038
absolute magnitude14.33
phase slope0.15
uncertainty0
referenceMPEC 2024-E179
observations used2233
oppositions18
arc length (days)11802
first opposition used1991
last opposition used2023
residual rms (arc-secs)0.61
perturbers coarse indicatorM-v
perturbers precise indicator003Ek
first observation date used1991-03-15.0
last observation date used2023-07-07.0
computer nameMPCLINUX
JD of orbit computation2456966.890467
perihelion JD uncertainty (days)6.1359E-04
argument of perihelion uncertainty (°)1.6629E-04
ascending node uncertainty (°)1.4186E-05
inclination uncertainty (°)7.7135E-06
eccentricity uncertainty 2.3115E-07
perihelion distance uncertainty (AU)5.8659E-07
Minimum Orbit Intersection Distances (in AU)
for orbit epoch: 2460400.5, reference: E2024-FB1
Mercury2.06092
Venus1.66397
Earth1.39408
Mars0.92413
Jupiter2.53111
Saturn6.73314
Uranus15.8535
Neptune27.4331

Observations

2254 total observations over interval: 1991 03 15.44633 – 2023 07 07.282025
These data are available for download (format description).

Date (UT) J2000 RA J2000 Dec Magn Location Ref
1991 03 15.44633 12 41 17.84 +02 47 11.1 18.8 V 691 – Steward Observatory, Kitt Peak-Spacewatch MPS 79416
1991 03 15.47421 12 41 16.17 +02 47 13.9 18.7 V 691 – Steward Observatory, Kitt Peak-Spacewatch MPS 79416
1991 03 15.50230 12 41 14.50 +02 47 16.3 18.8 V 691 – Steward Observatory, Kitt Peak-Spacewatch MPS 79416
1995 03 24.26727 12 20 34.76 +05 13 50.1 18.3 V 691 – Steward Observatory, Kitt Peak-Spacewatch MPS 34113
1995 03 24.28871 12 20 33.38 +05 13 51.0   691 – Steward Observatory, Kitt Peak-Spacewatch MPS 34113
1995 03 24.31015 12 20 31.95 +05 13 54.0   691 – Steward Observatory, Kitt Peak-Spacewatch MPS 34113
1997 10 29.62652 03 23 19.38 +30 08 09.3 18.5 V 566 – Haleakala-NEAT/GEODSS MPS 34113
1997 10 29.63664 03 23 18.67 +30 08 11.6 18.6 V 566 – Haleakala-NEAT/GEODSS MPS 34113
1997 10 29.64606 03 23 18.11 +30 08 14.6 18.7 V 566 – Haleakala-NEAT/GEODSS MPS 34113
1999 02 23.46042 12 35 01.11 +06 36 17.3 17.8 R 699 – Lowell Observatory-LONEOS MPS 23591
1999 02 23.48082 12 35 00.25 +06 36 19.3   699 – Lowell Observatory-LONEOS MPS 23591
1999 02 23.50129 12 34 59.41 +06 36 20.4   699 – Lowell Observatory-LONEOS MPS 23591
1999 03 23.34578 12 09 09.74 +07 28 49.0 18.8 R 699 – Lowell Observatory-LONEOS MPS 23591
1999 03 23.37634 12 09 07.77 +07 28 50.6   699 – Lowell Observatory-LONEOS MPS 23591
1999 03 23.40698 12 09 05.79 +07 28 55.1   699 – Lowell Observatory-LONEOS MPS 23591
1999 04 06.21686 11 55 03.31 +07 34 29.6 18.3 R 699 – Lowell Observatory-LONEOS MPS 23591
1999 04 06.23220 11 55 02.45 +07 34 30.2   699 – Lowell Observatory-LONEOS MPS 23591
1999 04 06.24448 11 55 01.71 +07 34 29.2 18.0   704 – Lincoln Laboratory ETS, New Mexico MPS 4894
1999 04 06.24752 11 55 01.55 +07 34 29.3   699 – Lowell Observatory-LONEOS MPS 23591
1999 04 06.25883 11 55 00.87 +07 34 28.2 18.4   704 – Lincoln Laboratory ETS, New Mexico MPS 4894
1999 04 06.27242 11 55 00.15 +07 34 27.7 19.0   704 – Lincoln Laboratory ETS, New Mexico MPS 4894
1999 04 06.28633 11 54 59.33 +07 34 28.1 18.8   704 – Lincoln Laboratory ETS, New Mexico MPS 4894
1999 04 06.30175 11 54 58.38 +07 34 29.4 19.6   704 – Lincoln Laboratory ETS, New Mexico MPS 4894
1999 04 12.13331 11 49 48.01 +07 29 08.7 18.9   704 – Lincoln Laboratory ETS, New Mexico MPS 4894
1999 04 12.15036 11 49 47.26 +07 29 08.4 18.9   704 – Lincoln Laboratory ETS, New Mexico MPS 4894
1999 04 12.16747 11 49 46.43 +07 29 08.6 18.9   704 – Lincoln Laboratory ETS, New Mexico MPS 4894
1999 04 12.18446 11 49 45.43 +07 29 06.5 19.4   704 – Lincoln Laboratory ETS, New Mexico MPS 4894
1999 04 12.20141 11 49 44.50 +07 29 04.5 19.4   704 – Lincoln Laboratory ETS, New Mexico MPS 4894
2001 08 16.39827 03 08 56.07 +19 09 07.2 19.3   704 – Lincoln Laboratory ETS, New Mexico MPS 33613
2001 08 16.41022 03 08 56.81 +19 09 12.8 19.7   704 – Lincoln Laboratory ETS, New Mexico MPS 33613
2001 08 16.42216 03 08 57.39 +19 09 20.0 20.1   704 – Lincoln Laboratory ETS, New Mexico MPS 33613
2001 08 16.43409 03 08 57.99 +19 09 26.7 19.6   704 – Lincoln Laboratory ETS, New Mexico MPS 33613
2001 08 16.44614 03 08 58.68 +19 09 32.0 19.3   704 – Lincoln Laboratory ETS, New Mexico MPS 33613
2001 08 22.38619 03 14 01.06 +20 01 21.2 19.3   704 – Lincoln Laboratory ETS, New Mexico MPS 33613
2001 08 22.40350 03 14 01.87 +20 01 30.1 19.6   704 – Lincoln Laboratory ETS, New Mexico MPS 33613
2001 08 22.41574 03 14 02.44 +20 01 37.0 19.6   704 – Lincoln Laboratory ETS, New Mexico MPS 33613
2001 08 22.42793 03 14 02.91 +20 01 43.6 19.6   704 – Lincoln Laboratory ETS, New Mexico MPS 33613
2001 08 22.44058 03 14 03.53 +20 01 48.5 19.7   704 – Lincoln Laboratory ETS, New Mexico MPS 33613
2001 08 23.43461 03 14 50.10 +20 10 23.9 19.0 R 699 – Lowell Observatory-LONEOS MPS 34113
2001 08 23.44723 03 14 50.66 +20 10 30.4   699 – Lowell Observatory-LONEOS MPS 34113
2001 08 23.45987 03 14 51.28 +20 10 36.4   699 – Lowell Observatory-LONEOS MPS 34113
2001 08 23.47252 03 14 51.81 +20 10 43.0   699 – Lowell Observatory-LONEOS MPS 34113
2001 09 06.45243 03 23 29.92 +22 08 21.3 18.8   644 – Palomar Mountain/NEAT MPS 34113
2001 09 06.47445 03 23 30.51 +22 08 32.4 18.6   644 – Palomar Mountain/NEAT MPS 34113
2001 09 06.49758 03 23 31.07 +22 08 43.4 18.8   644 – Palomar Mountain/NEAT MPS 34113
2001 09 16.40876 03 26 37.12 +23 28 43.6 18.6   644 – Palomar Mountain/NEAT MPS 35513
2001 09 16.43018 03 26 37.29 +23 28 53.8 19.3   644 – Palomar Mountain/NEAT MPS 35513
2001 09 16.45140 03 26 37.52 +23 29 04.3 20.1   644 – Palomar Mountain/NEAT MPS 35513
2001 09 20.42857 03 27 02.39 +24 00 09.1 18.5   704 – Lincoln Laboratory ETS, New Mexico MPS 35513
2001 09 20.44326 03 27 02.35 +24 00 15.6 18.6   704 – Lincoln Laboratory ETS, New Mexico MPS 35513
2001 09 20.45784 03 27 02.40 +24 00 22.6 18.6   704 – Lincoln Laboratory ETS, New Mexico MPS 35513
2001 09 22.33941 03 27 03.75 +24 14 49.8 18.4   704 – Lincoln Laboratory ETS, New Mexico MPS 35513
2001 09 22.35407 03 27 03.75 +24 14 56.7 18.4   704 – Lincoln Laboratory ETS, New Mexico MPS 35513
2001 09 22.37048 03 27 03.71 +24 15 04.1 18.5   704 – Lincoln Laboratory ETS, New Mexico MPS 35513
2001 09 22.38481 03 27 03.69 +24 15 10.7 18.4   704 – Lincoln Laboratory ETS, New Mexico MPS 35513
2001 09 22.39906 03 27 03.66 +24 15 16.7 18.3   704 – Lincoln Laboratory ETS, New Mexico MPS 35514
2001 09 22.43881 03 27 03.48 +24 15 34.0 18.5   644 – Palomar Mountain/NEAT MPS 35514
2001 09 22.46361 03 27 03.39 +24 15 45.6 18.5   644 – Palomar Mountain/NEAT MPS 35514
2001 09 22.49017 03 27 03.30 +24 15 57.6 18.7   644 – Palomar Mountain/NEAT MPS 35514
2001 09 23.39957 03 27 01.28 +24 22 53.7 19.0   704 – Lincoln Laboratory ETS, New Mexico MPS 35514
2001 09 23.41391 03 27 01.24 +24 23 00.3 19.8   704 – Lincoln Laboratory ETS, New Mexico MPS 35514
2001 09 23.42852 03 27 01.07 +24 23 07.3 20.0   704 – Lincoln Laboratory ETS, New Mexico MPS 35514
2001 10 03.43351 03 24 46.76 +25 36 00.6 18.6   644 – Palomar Mountain/NEAT MPS 37473
2001 10 03.44436 03 24 46.50 +25 36 04.5 18.6   644 – Palomar Mountain/NEAT MPS 37473
2001 10 03.45530 03 24 46.21 +25 36 09.5 18.7   644 – Palomar Mountain/NEAT MPS 37473
2001 10 14.32236 03 18 27.43 +26 45 46.3 18.1   704 – Lincoln Laboratory ETS, New Mexico MPS 37473
2001 10 14.33833 03 18 26.64 +26 45 51.8 17.7   704 – Lincoln Laboratory ETS, New Mexico MPS 37473
2001 10 14.35408 03 18 25.89 +26 45 57.3 18.1   704 – Lincoln Laboratory ETS, New Mexico MPS 37473
2001 10 14.36984 03 18 25.11 +26 46 02.8 18.5   704 – Lincoln Laboratory ETS, New Mexico MPS 37473
2001 10 14.38562 03 18 24.35 +26 46 08.1 18.2   704 – Lincoln Laboratory ETS, New Mexico MPS 37473
2001 10 18.31992 03 15 09.47 +27 07 49.2 18.5   704 – Lincoln Laboratory ETS, New Mexico MPS 38937
2001 10 18.33574 03 15 08.62 +27 07 54.7 18.5   704 – Lincoln Laboratory ETS, New Mexico MPS 38937
2001 10 18.35145 03 15 07.55 +27 07 57.9 18.2   704 – Lincoln Laboratory ETS, New Mexico MPS 38937
2001 10 18.36793 03 15 06.88 +27 08 05.0 18.5   704 – Lincoln Laboratory ETS, New Mexico MPS 38937
2001 10 18.38438 03 15 05.87 +27 08 10.9 18.6   704 – Lincoln Laboratory ETS, New Mexico MPS 38937
2001 10 21.32706 03 12 22.10 +27 22 52.1 18.2   704 – Lincoln Laboratory ETS, New Mexico MPS 38937
2001 10 21.33557 03 12 21.59 +27 22 55.0 17.8   704 – Lincoln Laboratory ETS, New Mexico MPS 38937
2001 10 21.34510 03 12 21.03 +27 22 57.4 18.0   704 – Lincoln Laboratory ETS, New Mexico MPS 38937
2001 10 21.35190 03 12 20.60 +27 22 59.4 18.0   704 – Lincoln Laboratory ETS, New Mexico MPS 38937
2001 10 21.36124 03 12 20.01 +27 23 01.9 18.1   704 – Lincoln Laboratory ETS, New Mexico MPS 38937
2001 10 21.36823 03 12 19.61 +27 23 04.3 18.2   704 – Lincoln Laboratory ETS, New Mexico MPS 38937
2001 10 21.37725 03 12 19.07 +27 23 05.8 18.2   704 – Lincoln Laboratory ETS, New Mexico MPS 38937
2001 10 21.38457 03 12 18.61 +27 23 08.8 18.2   704 – Lincoln Laboratory ETS, New Mexico MPS 38937
2001 10 21.39350 03 12 18.13 +27 23 10.4 18.5   704 – Lincoln Laboratory ETS, New Mexico MPS 38937
2001 10 21.40092 03 12 17.66 +27 23 12.4 19.5   704 – Lincoln Laboratory ETS, New Mexico MPS 38937
2001 10 27.21028 03 06 15.44 +27 48 05.0 16.8 R 699 – Lowell Observatory-LONEOS MPS 38937
